Home > Weather > Wellington > Past weeks

Flag for New Zealand Past Weather in Wellington, New Zealand — Yesterday and Last 2 Weeks

Now
54 °F

Cool.


Feels Like: 48 °F
Forecast: 51 / 56 °F
Wind: 20 mph from Northwest

Location: Wellington Airport

Current Time: Jul 27, 2016 at 9:52:40 AM

Latest Report: Jul 27, 2016 at 9:00 AM


Visibility: N/A

Pressure: 29.80 "Hg

Humidity: 77%

Dew Point: 46 °F

Location of WellingtonLocation

Past Weather in Wellington — Graph

°F

Wellington Temperature Yesterday

Maximum temperature yesterday: 52 °F (at 11:30 AM)
Minimum temperature yesterday: 43 °F (at 7:00 AM)
Average temperature yesterday: 49 °F

High & Low Weather Summary for the Past Weeks

 TemperatureHumidityPressure
High61 °F (Jul 24, 12:30 AM)100% (Jul 14, 2:00 AM)30.30 "Hg (Jul 14, 2:00 AM)
Low41 °F (Jul 12, 8:00 AM)38% (Jul 14, 7:00 PM)28.97 "Hg (Jul 24, 2:00 AM)
Average52 °F71%29.68 "Hg
* Reported Jul 12 8:00 AM — Jul 27 8:30 AM, Wellington, Weather by CustomWeather, © 2016

Note: Actual official high and low records may vary slightly from our data, if they occured in-between our weather recording intervals... More about our weather records

Advertising

Wellington Weather History for the Previous 24 Hours

Scroll right to see more
 ConditionsComfort  
Time TempWeatherWind HumidityBarometerVisibility
8:30 AM
Wed, Jul 27
55 °FCool.16 mph72%29.80 "HgN/A
8:00 AM54 °FPassing clouds.17 mph77%29.77 "HgN/A
7:30 AM54 °FPartly sunny.21 mph82%29.77 "HgN/A
7:00 AM54 °FBroken clouds.16 mph77%29.77 "HgN/A
6:30 AM54 °FPassing clouds.16 mph82%29.77 "HgN/A
6:00 AM54 °FPassing clouds.22 mph82%29.77 "HgN/A
5:30 AM54 °FPassing clouds.20 mph77%29.77 "HgN/A
5:00 AM52 °FPassing clouds.18 mph88%29.74 "HgN/A
4:30 AM52 °FSprinkles. Passing clouds.23 mph88%29.77 "HgN/A
4:00 AM52 °FPartly cloudy.18 mph77%29.77 "HgN/A
3:30 AM52 °FPassing clouds.23 mph77%29.77 "HgN/A
3:00 AM52 °FCool.25 mph72%29.80 "HgN/A
2:30 AM52 °FCool.18 mph67%29.80 "HgN/A
2:00 AM52 °FCool.16 mph67%29.80 "HgN/A
1:30 AM50 °FPassing clouds.20 mph76%29.83 "HgN/A
1:00 AM52 °FPassing clouds.20 mph72%29.83 "HgN/A
12:30 AM52 °FCool.21 mph67%29.83 "HgN/A
12:00 AM48 °FPassing clouds.17 mph76%29.83 "HgN/A
11:30 PM
Tue, Jul 26
48 °FPassing clouds.17 mph76%29.83 "HgN/A
11:00 PM48 °FCool.15 mph76%29.83 "HgN/A
10:30 PM48 °FCool.14 mph76%29.86 "HgN/A
10:00 PM46 °FPassing clouds.17 mph76%29.86 "HgN/A
9:30 PM46 °FCool.16 mph76%29.86 "HgN/A
9:00 PM46 °FCool.13 mph76%29.86 "HgN/A
8:30 PM46 °FCool.12 mph76%29.86 "HgN/A
8:00 PM46 °FCool.10 mph76%29.86 "HgN/A
7:30 PM46 °FCool.8 mph76%29.83 "HgN/A
7:00 PM46 °FCool.8 mph76%29.83 "HgN/A
6:30 PM46 °FCool.9 mph76%29.83 "HgN/A
6:00 PM48 °FCool.7 mph66%29.83 "HgN/A
5:30 PM48 °FCool.3 mph76%29.83 "HgN/A
5:00 PM52 °FCool.1 mph67%29.83 "HgN/A
4:30 PM52 °FCool.3 mph67%29.83 "HgN/A
4:00 PM52 °FCool.6 mph72%29.80 "HgN/A
3:30 PM52 °FCool.8 mph72%29.80 "HgN/A
3:00 PM52 °FCool.8 mph72%29.80 "HgN/A
2:30 PM52 °FCool.8 mph72%29.80 "HgN/A
2:00 PM52 °FCool.8 mph72%29.80 "HgN/A
1:30 PM52 °FCool.9 mph67%29.80 "HgN/A
1:00 PM52 °FCool.8 mph67%29.80 "HgN/A
12:30 PM52 °FCool.7 mph62%29.80 "HgN/A
12:00 PM52 °FCool.6 mph58%29.80 "HgN/A
11:30 AM52 °FCool.3 mph62%29.80 "HgN/A
11:00 AM50 °FCool.5 mph67%29.80 "HgN/A
10:30 AM50 °FCool.6 mph67%29.80 "HgN/A
10:00 AM50 °FCool.3 mph67%29.80 "HgN/A
9:30 AM48 °FCool.1 mph76%29.80 "HgN/A
9:00 AM45 °FQuite cool.5 mph81%29.80 "HgN/A
Weather by CustomWeather, © 2016

See weather overviewHow to use our weather pages